Time,TemperatureF,DewpointF,PressureIn,WindDirection,WindDirectionDegrees,WindSpeedMPH,WindSpeedGustMPH,Humidity,HourlyPrecipIn,Conditions,Clouds,dailyrainin,SolarRadiationWatts/m^2,SoftwareType,DateUTC
2013-03-28 12:52:00,41.0,18.0,-100.00,South,190,5.0,9.0,39,-99.99,,,0.00,308.000000,,2013-03-28 18:52:00,
2013-03-28 13:22:00,44.0,22.0,-100.00,SE,140,7.0,15.0,41,0.00,,,0.00,483.000000,,2013-03-28 19:22:00,
2013-03-28 13:33:00,44.0,22.0,-100.00,SE,140,7.0,15.0,41,0.00,,,0.00,483.000000,,2013-03-28 19:33:00,
2013-03-28 13:42:00,44.0,22.0,-100.00,SE,140,7.0,15.0,41,0.00,,,0.00,483.000000,,2013-03-28 19:42:00,
2013-03-28 13:52:00,44.0,22.0,-100.00,SE,140,7.0,15.0,41,0.00,,,0.00,483.000000,,2013-03-28 19:52:00,
2013-03-28 14:22:00,43.0,21.0,-100.00,SE,144,7.0,12.0,41,0.00,,,0.00,346.000000,,2013-03-28 20:22:00,
2013-03-28 14:32:00,43.0,21.0,-100.00,SE,144,7.0,12.0,41,0.00,,,0.00,346.000000,,2013-03-28 20:32:00,
2013-03-28 14:42:00,43.0,21.0,-100.00,SE,144,7.0,12.0,41,0.00,,,0.00,346.000000,,2013-03-28 20:42:00,
2013-03-28 14:52:00,43.0,21.0,-100.00,SE,144,7.0,12.0,41,0.00,,,0.00,346.000000,,2013-03-28 20:52:00,
2013-03-28 15:22:00,45.0,21.0,-100.00,ESE,119,6.0,16.0,38,0.00,,,0.00,334.000000,,2013-03-28 21:22:00,
2013-03-28 15:32:00,45.0,21.0,-100.00,ESE,119,6.0,16.0,38,0.00,,,0.00,334.000000,,2013-03-28 21:32:00,
2013-03-28 15:43:00,45.0,21.0,-100.00,ESE,119,6.0,16.0,38,0.00,,,0.00,334.000000,,2013-03-28 21:43:00,
2013-03-28 15:53:00,45.0,21.0,-100.00,ESE,119,6.0,16.0,38,0.00,,,0.00,334.000000,,2013-03-28 21:53:00,
2013-03-28 16:22:00,45.0,19.0,-100.00,South,174,5.0,19.0,35,0.00,,,0.00,215.000000,,2013-03-28 22:22:00,
2013-03-28 16:32:00,45.0,19.0,-100.00,South,174,5.0,19.0,35,0.00,,,0.00,215.000000,,2013-03-28 22:32:00,
2013-03-28 16:42:00,45.0,19.0,-100.00,South,174,5.0,19.0,35,0.00,,,0.00,215.000000,,2013-03-28 22:42:00,
2013-03-28 16:52:00,45.0,19.0,-100.00,South,174,5.0,19.0,35,0.00,,,0.00,215.000000,,2013-03-28 22:52:00,
2013-03-28 17:22:00,43.0,19.0,-100.00,SE,140,6.0,24.0,38,0.00,,,0.00,127.000000,,2013-03-28 23:22:00,
2013-03-28 17:32:00,43.0,19.0,-100.00,SE,140,6.0,24.0,38,0.00,,,0.00,127.000000,,2013-03-28 23:32:00,
2013-03-28 17:42:00,43.0,19.0,-100.00,SE,140,6.0,24.0,38,0.00,,,0.00,127.000000,,2013-03-28 23:42:00,
2013-03-28 17:52:00,43.0,19.0,-100.00,SE,140,6.0,24.0,38,0.00,,,0.00,127.000000,,2013-03-28 23:52:00,
2013-03-28 18:22:00,43.0,19.0,-100.00,SE,138,7.0,12.0,38,0.00,,,0.00,96.000000,,2013-03-29 00:22:00,
2013-03-28 18:32:00,43.0,19.0,-100.00,SE,138,7.0,12.0,38,0.00,,,0.00,96.000000,,2013-03-29 00:32:00,
2013-03-28 18:42:00,43.0,19.0,-100.00,SE,138,7.0,12.0,38,0.00,,,0.00,96.000000,,2013-03-29 00:42:00,
2013-03-28 18:52:00,43.0,19.0,-100.00,SE,138,7.0,12.0,38,0.00,,,0.00,96.000000,,2013-03-29 00:52:00,
2013-03-28 19:22:00,40.0,21.0,-100.00,SSW,204,6.0,12.0,47,0.00,,,-99.99,59.000000,,2013-03-29 01:22:00,
2013-03-28 19:32:00,40.0,21.0,-100.00,SSW,204,6.0,12.0,47,0.00,,,-99.99,59.000000,,2013-03-29 01:32:00,
2013-03-28 19:42:00,40.0,21.0,-100.00,SSW,204,6.0,12.0,47,0.00,,,-99.99,59.000000,,2013-03-29 01:42:00,
2013-03-28 19:52:00,40.0,21.0,-100.00,SSW,204,6.0,12.0,47,0.00,,,-99.99,59.000000,,2013-03-29 01:52:00,
2013-03-28 20:22:00,36.0,23.0,-100.00,NE,45,5.0,10.0,58,0.00,,,-99.99,5.000000,,2013-03-29 02:22:00,
2013-03-28 20:32:00,36.0,23.0,-100.00,NE,45,5.0,10.0,58,0.00,,,-99.99,5.000000,,2013-03-29 02:32:00,
2013-03-28 20:42:00,36.0,23.0,-100.00,NE,45,5.0,10.0,58,0.00,,,-99.99,5.000000,,2013-03-29 02:42:00,
2013-03-28 20:52:00,36.0,23.0,-100.00,NE,45,5.0,10.0,58,0.00,,,-99.99,5.000000,,2013-03-29 02:52:00,
2013-03-28 21:22:00,34.0,24.0,-100.00,ENE,57,5.0,7.0,66,0.00,,,-99.99,0.000000,,2013-03-29 03:22:00,
2013-03-28 21:32:00,34.0,24.0,-100.00,ENE,57,5.0,7.0,66,0.00,,,-99.99,0.000000,,2013-03-29 03:32:00,
2013-03-28 21:42:00,34.0,24.0,-100.00,ENE,57,5.0,7.0,66,0.00,,,-99.99,0.000000,,2013-03-29 03:42:00,
2013-03-28 21:53:00,34.0,24.0,-100.00,ENE,57,5.0,7.0,66,0.00,,,-99.99,0.000000,,2013-03-29 03:53:00,
2013-03-28 22:22:00,35.0,26.0,-100.00,NNE,20,9.0,13.0,68,0.00,,,-99.99,0.000000,,2013-03-29 04:22:00,
2013-03-28 22:33:00,35.0,26.0,-100.00,NNE,20,9.0,13.0,68,0.00,,,-99.99,0.000000,,2013-03-29 04:33:00,
2013-03-28 22:43:00,35.0,26.0,-100.00,NNE,20,9.0,13.0,68,0.00,,,-99.99,0.000000,,2013-03-29 04:43:00,
2013-03-28 22:52:00,35.0,26.0,-100.00,NNE,20,9.0,13.0,68,0.00,,,-99.99,0.000000,,2013-03-29 04:52:00,
2013-03-28 23:23:00,33.0,26.0,-100.00,NE,49,3.0,10.0,74,0.00,,,-99.99,0.000000,,2013-03-29 05:23:00,
2013-03-28 23:33:00,33.0,26.0,-100.00,NE,49,3.0,10.0,74,0.00,,,-99.99,0.000000,,2013-03-29 05:33:00,
2013-03-28 23:43:00,33.0,26.0,-100.00,NE,49,3.0,10.0,74,0.00,,,-99.99,0.000000,,2013-03-29 05:43:00,
2013-03-28 23:52:00,33.0,26.0,-100.00,NE,49,3.0,10.0,74,0.00,,,-99.99,0.000000,,2013-03-29 05:52:00,